CW2857 Weather Reports


time (UTC)temp
F
wind
direction
speed
knots
gust
knots
rain 1hr
in
rain 24hr
in
rain mn
in
humidity
%
barometer
mb
20260904142101 60 311 0.9 3.5 0.00 0.00 0.00 56 1015.8
20260904141603 60 310 0.0 3.5 0.00 0.00 0.00 58 1015.9
20260904141059 60 286 0.9 5.2 0.00 0.00 0.00 57 1015.8
20260904140557 60 325 2.6 7.0 0.00 0.00 0.00 57 1015.7
20260904140055 62 288 3.5 7.0 0.00 0.00 0.00 53 1015.8
20260904135557 63 248 2.6 4.3 0.00 0.00 0.00 40 1015.7
20260904135055 63 246 2.6 7.8 0.00 0.00 0.00 40 1015.7
20260904134554 63 186 4.3 7.8 0.00 0.00 0.00 40 1015.7
20260904134054 63 198 3.5 7.0 0.00 0.00 0.00 40 1015.6
20260904133554 63 202 2.6 5.2 0.00 0.00 0.00 40 1015.6
20260904133054 63 182 2.6 6.1 0.00 0.00 0.00 40 1015.6
20260904132553 63 219 1.7 7.8 0.00 0.00 0.00 40 1015.5
20260904132053 63 172 3.5 7.8 0.00 0.00 0.00 39 1015.4
20260904131555 63 163 2.6 7.0 0.00 0.00 0.00 40 1015.4
20260904131052 63 182 4.3 8.7 0.00 0.00 0.00 40 1015.4
20260904130552 63 217 5.2 8.7 0.00 0.00 0.00 39 1015.3
20260904130052 63 178 4.3 9.6 0.00 0.00 0.00 40 1015.3
20260904125551 63 206 3.5 7.0 0.00 0.00 0.00 40 1015.3
20260904125051 63 194 2.6 6.1 0.00 0.00 0.00 40 1015.3
20260904124600 63 207 2.6 6.1 0.00 0.00 0.00 40 1015.3
20260904124054 63 219 0.0 4.3 0.00 0.00 0.00 40 1015.3
20260904123550 63 196 1.7 5.2 0.00 0.00 0.00 40 1015.3
20260904123050 63 193 2.6 8.7 0.00 0.00 0.00 40 1015.3
20260904122550 63 194 1.7 8.7 0.00 0.00 0.00 39 1015.3
20260904122050 63 205 2.6 6.1 0.00 0.00 0.00 40 1015.3
20260904121550 63 205 2.6 6.1 0.00 0.00 0.00 40 1015.3
20260904121051 63 202 0.9 4.3 0.00 0.00 0.00 40 1015.3
20260904120552 63 181 0.9 5.2 0.00 0.00 0.00 39 1015.3
20260904120051 63 161 1.7 9.6 0.00 0.00 0.00 39 1015.4
20260904115548 63 214 4.3 9.6 0.00 0.00 0.00 39 1015.4
20260904115048 63 171 4.3 8.7 0.00 0.00 0.00 39 1015.3
20260904114548 63 182 3.5 8.7 0.00 0.00 0.00 39 1015.3
20260904114048 63 194 3.5 9.6 0.00 0.00 0.00 39 1015.2
20260904113547 63 200 4.3 13.9 0.00 0.00 0.00 39 1015.3
20260904113051 63 203 6.1 13.9 0.00 0.00 0.00 39 1015.2
20260904112548 63 169 7.0 13.9 0.00 0.00 0.00 39 1015.2
20260904112051 63 207 4.3 12.2 0.00 0.00 0.00 39 1015.2
20260904111546 63 185 7.0 13.9 0.00 0.00 0.00 39 1015.2
20260904111045 63 200 5.2 10.4 0.00 0.00 0.00 39 1015.2
20260904110548 63 169 6.1 11.3 0.00 0.00 0.00 39 1015.2
20260904110045 63 167 5.2 14.8 0.00 0.00 0.00 39 1015.2
20260904105545 63 178 7.8 14.8 0.00 0.00 0.00 39 1015.1
20260904105043 63 182 9.6 13.0 0.00 0.00 0.00 39 1015.1
20260904104543 63 171 7.0 16.5 0.00 0.00 0.00 39 1015.1
20260904104042 63 180 7.0 16.5 0.00 0.00 0.00 39 1015.1
20260904103542 63 194 7.0 12.2 0.00 0.00 0.00 39 1015.1
20260904103045 63 184 7.0 10.4 0.00 0.00 0.00 39 1015.1
20260904102542 63 170 5.2 11.3 0.00 0.00 0.00 39 1015.0
20260904102042 63 161 5.2 11.3 0.00 0.00 0.00 39 1015.0
20260904101543 63 182 6.1 14.8 0.00 0.00 0.00 39 1015.1
20260904101044 63 181 6.1 14.8 0.00 0.00 0.00 39 1015.2
20260904100545 63 190 7.0 13.0 0.00 0.00 0.00 39 1015.2
20260904100043 63 203 7.8 13.9 0.00 0.00 0.00 39 1015.2
20260904095540 63 202 7.8 13.9 0.00 0.00 0.00 39 1015.2
20260904095044 63 170 8.7 13.9 0.00 0.00 0.00 39 1015.2
20260904094546 63 165 7.0 13.9 0.00 0.00 0.00 38 1015.2
20260904094038 63 147 7.0 17.4 0.00 0.00 0.00 38 1015.3
20260904093542 63 148 7.0 17.4 0.00 0.00 0.00 38 1015.2
20260904093037 63 186 8.7 15.6 0.00 0.00 0.00 38 1015.3
20260904092536 63 157 6.1 12.2 0.00 0.00 0.00 38 1015.4
20260904092036 63 172 7.0 14.8 0.00 0.00 0.00 38 1015.3
20260904091536 63 155 8.7 14.8 0.00 0.00 0.00 38 1015.4
20260904091035 63 180 7.0 9.6 0.00 0.00 0.00 38 1015.4
20260904090537 63 146 5.2 14.8 0.00 0.00 0.00 37 1015.5
20260904090034 63 191 5.2 14.8 0.00 0.00 0.00 37 1015.5
20260904085534 63 180 8.7 15.6 0.00 0.00 0.00 37 1015.6
20260904085035 63 222 8.7 15.6 0.00 0.00 0.00 37 1015.6
20260904084533 63 175 7.0 14.8 0.00 0.00 0.00 37 1015.6
20260904084032 63 165 6.1 15.6 0.00 0.00 0.00 37 1015.7
20260904083531 63 209 7.8 14.8 0.00 0.00 0.00 37 1015.7
20260904083034 63 162 7.8 12.2 0.00 0.00 0.00 37 1015.8
20260904082531 63 155 8.7 13.9 0.00 0.00 0.00 37 1015.8
20260904082029 63 184 7.0 13.9 0.00 0.00 0.00 37 1015.8
20260904081530 63 184 7.0 14.8 0.00 0.00 0.00 37 1015.9
20260904081029 63 188 6.1 14.8 0.00 0.00 0.00 37 1016.0
20260904080529 63 194 4.3 13.0 0.00 0.00 0.00 36 1016.0
20260904080029 63 158 8.7 15.6 0.00 0.00 0.00 36 1016.0
20260904075530 64 196 7.8 15.6 0.00 0.00 0.00 36 1016.0
20260904075026 63 225 6.1 17.4 0.00 0.00 0.00 36 1016.1
20260904074541 64 182 8.7 17.4 0.00 0.00 0.00 36 1016.1
20260904074025 63 164 8.7 14.8 0.00 0.00 0.00 36 1016.0
20260904073525 63 188 6.1 13.9 0.00 0.00 0.00 36 1015.9
20260904073025 64 172 7.8 19.1 0.00 0.00 0.00 35 1015.9
20260904072523 64 200 10.4 19.1 0.00 0.00 0.00 36 1015.9
20260904072022 63 158 3.5 13.0 0.00 0.00 0.00 36 1015.9
20260904071530 63 194 5.2 13.0 0.00 0.00 0.00 36 1016.0
20260904071025 63 158 5.2 13.0 0.00 0.00 0.00 36 1015.9
20260904070524 63 174 4.3 10.4 0.00 0.00 0.00 36 1015.8
20260904070020 64 198 4.3 10.4 0.00 0.00 0.00 36 1015.7
20260904065519 64 195 7.0 14.8 0.00 0.00 0.00 35 1015.8
20260904065019 64 186 6.1 13.9 0.00 0.00 0.00 35 1015.8
20260904064521 64 163 6.1 13.0 0.00 0.00 0.00 35 1015.7
20260904064019 64 196 7.8 14.8 0.00 0.00 0.00 35 1015.6
20260904063519 64 171 7.8 14.8 0.00 0.00 0.00 35 1015.6
20260904063019 64 189 7.8 11.3 0.00 0.00 0.00 35 1015.6
20260904062519 64 205 6.1 12.2 0.00 0.00 0.00 35 1015.7
20260904062019 64 173 7.8 13.0 0.00 0.00 0.00 35 1015.7
20260904061518 64 156 5.2 13.9 0.00 0.00 0.00 35 1015.7
20260904061019 64 207 7.0 14.8 0.00 0.00 0.00 35 1015.7
20260904060518 64 171 5.2 15.6 0.00 0.00 0.00 35 1015.6
20260904060018 64 142 8.7 15.6 0.00 0.00 0.00 35 1015.6
20260904055618 64 197 5.2 14.8 0.00 0.00 0.00 35 1015.7
20260904055019 64 198 7.0 13.0 0.00 0.00 0.00 35 1015.7
20260904054519 64 167 7.0 13.0 0.00 0.00 0.00 35 1015.7
20260904054017 64 184 7.0 19.1 0.00 0.00 0.00 35 1015.7
20260904053516 64 194 7.0 19.1 0.00 0.00 0.00 35 1015.7
20260904053016 64 204 5.2 13.0 0.00 0.00 0.00 35 1015.7
20260904052516 64 150 7.0 13.0 0.00 0.00 0.00 34 1015.7
20260904052016 65 183 4.3 12.2 0.00 0.00 0.00 34 1015.8
20260904051520 65 169 5.2 13.9 0.00 0.00 0.00 34 1015.8
20260904051015 65 175 3.5 14.8 0.00 0.00 0.00 34 1015.8
20260904050515 65 134 7.0 14.8 0.00 0.00 0.00 34 1015.7
20260904050015 65 156 3.5 13.0 0.00 0.00 0.00 34 1015.8
20260904045515 65 163 8.7 15.6 0.00 0.00 0.00 34 1015.7
20260904045015 65 223 7.0 15.6 0.00 0.00 0.00 33 1015.6
20260904044516 65 182 5.2 13.0 0.00 0.00 0.00 33 1015.6
20260904044017 65 194 5.2 22.6 0.00 0.00 0.00 33 1015.7
20260904043514 66 146 5.2 22.6 0.00 0.00 0.00 33 1015.7
20260904043014 66 176 6.1 13.9 0.00 0.00 0.00 34 1015.4
20260904042515 66 169 7.0 13.9 0.00 0.00 0.00 34 1015.5
20260904042012 66 165 5.2 10.4 0.00 0.00 0.00 34 1015.5
20260904041512 66 217 5.2 13.9 0.00 0.00 0.00 34 1015.5
20260904041017 66 234 7.8 13.9 0.00 0.00 0.00 34 1015.5
20260904040513 66 186 7.0 13.9 0.00 0.00 0.00 35 1015.4
20260904040013 65 193 7.8 16.5 0.00 0.00 0.00 35 1015.1
20260904035513 65 188 4.3 14.8 0.00 0.00 0.00 39 1015.0
20260904035012 65 223 8.7 14.8 0.00 0.00 0.00 37 1015.0
20260904034511 65 239 7.0 15.6 0.00 0.00 0.00 40 1015.0
20260904034012 65 241 9.6 16.5 0.00 0.00 0.00 39 1014.9
20260904033511 65 247 7.8 19.1 0.00 0.00 0.00 40 1014.8
20260904033010 65 191 10.4 20.0 0.00 0.00 0.00 40 1014.7
20260904032512 65 251 11.3 20.0 0.00 0.00 0.00 41 1014.5
20260904032014 65 184 8.7 22.6 0.00 0.00 0.00 40 1014.5
20260904031510 65 246 8.7 22.6 0.00 0.00 0.00 40 1014.5
20260904031009 65 238 7.8 15.6 0.00 0.00 0.00 40 1014.7
20260904030510 65 234 5.2 13.9 0.00 0.00 0.00 40 1014.6
20260904030009 65 221 4.3 8.7 0.00 0.00 0.00 40 1014.7
20260904025509 65 227 4.3 10.4 0.00 0.00 0.00 40 1014.6
20260904025008 65 193 3.5 15.6 0.00 0.00 0.00 40 1014.6
20260904024507 65 284 5.2 15.6 0.00 0.00 0.00 40 1014.7
20260904024007 65 223 7.0 15.6 0.00 0.00 0.00 39 1014.7
20260904023508 66 199 9.6 18.2 0.00 0.00 0.00 39 1014.7
20260904023008 66 258 10.4 18.2 0.00 0.00 0.00 39 1014.6
20260904022508 66 259 7.0 14.8 0.00 0.00 0.00 39 1014.5
20260904022009 66 265 5.2 14.8 0.00 0.00 0.00 38 1014.4
20260904021507 66 240 8.7 14.8 0.00 0.00 0.00 37 1014.4
20260904021007 66 246 2.6 10.4 0.00 0.00 0.00 37 1014.4
20260904020506 67 246 3.5 15.6 0.00 0.00 0.00 36 1014.5
20260904020006 67 244 5.2 15.6 0.00 0.00 0.00 35 1014.6
20260904015505 67 244 7.8 11.3 0.00 0.00 0.00 35 1014.4
20260904015007 68 260 7.0 12.2 0.00 0.00 0.00 34 1014.6
20260904014505 68 232 4.3 12.2 0.00 0.00 0.00 33 1014.5
20260904014004 68 192 7.8 15.6 0.00 0.00 0.00 33 1014.6
20260904013503 69 247 9.6 20.0 0.00 0.00 0.00 32 1014.5
20260904013004 70 180 6.1 14.8 0.00 0.00 0.00 30 1014.6
20260904012506 70 227 4.3 13.0 0.00 0.00 0.00 31 1014.7
20260904012005 70 250 7.8 13.0 0.00 0.00 0.00 30 1014.8
20260904011504 70 233 7.8 16.5 0.00 0.00 0.00 29 1014.8
20260904011006 70 182 7.0 16.5 0.00 0.00 0.00 30 1014.9
20260904010502 70 192 7.0 13.9 0.00 0.00 0.00 29 1014.9
20260904010002 71 173 8.7 22.6 0.00 0.00 0.00 29 1014.9
20260904005501 71 240 7.8 22.6 0.00 0.00 0.00 29 1015.0
20260904005001 71 191 9.6 18.2 0.00 0.00 0.00 28 1015.0
20260904004501 71 225 10.4 18.2 0.00 0.00 0.00 28 1015.0
20260904004001 72 238 10.4 19.1 0.00 0.00 0.00 28 1014.9
20260904003503 72 232 11.3 19.1 0.00 0.00 0.00 27 1014.9
20260904003105 72 220 11.3 20.0 0.00 0.00 0.00 28 1015.1
20260904003001 73 248 10.4 20.0 0.00 0.00 0.00 28 1014.9
20260904002600 72 235 11.3 19.1 0.00 0.00 0.00 28 1014.9
20260904002103 72 183 8.7 18.2 0.00 0.00 0.00 28 1014.8
20260904001601 72 171 8.7 19.1 0.00 0.00 0.00 28 1014.8
20260904001100 73 194 12.2 20.9 0.00 0.00 0.00 27 1014.7
20260904000604 73 189 9.6 20.9 0.00 0.00 0.00 27 1014.8
20260904000140 73 192 9.6 19.1 0.00 0.00 0.00 27 1014.8
20260903235559 73 276 9.6 17.4 0.00 0.00 0.00 27 1014.7
20260903235057 73 188 7.8 13.0 0.00 0.00 0.00 27 1014.8
20260903234558 74 223 7.0 17.4 0.00 0.00 0.00 26 1014.8
20260903234057 73 148 7.8 17.4 0.00 0.00 0.00 27 1014.9
20260903233559 73 229 8.7 14.8 0.00 0.00 0.00 26 1014.9
20260903233057 74 189 8.7 19.1 0.00 0.00 0.00 26 1015.0
20260903232556 74 232 10.4 19.1 0.00 0.00 0.00 26 1015.1
20260903232100 74 229 10.4 20.9 0.00 0.00 0.00 26 1015.2
20260903231608 74 188 10.4 20.9 0.00 0.00 0.00 25 1015.1
20260903231054 75 250 10.4 19.1 0.00 0.00 0.00 25 1015.1
20260903230555 75 257 9.6 19.1 0.00 0.00 0.00 26 1015.2
20260903230103 75 205 9.6 21.7 0.00 0.00 0.00 25 1015.2
20260903225556 74 245 10.4 20.0 0.00 0.00 0.00 26 1015.3
20260903225053 75 209 7.8 20.0 0.00 0.00 0.00 25 1015.3
20260903224556 75 215 10.4 20.0 0.00 0.00 0.00 25 1015.4
20260903224055 75 225 9.6 22.6 0.00 0.00 0.00 25 1015.5
20260903223552 75 248 11.3 22.6 0.00 0.00 0.00 25 1015.4
20260903223053 74 172 9.6 17.4 0.00 0.00 0.00 25 1015.3
20260903222555 74 168 10.4 20.9 0.00 0.00 0.00 25 1015.2
20260903222051 74 227 9.6 20.9 0.00 0.00 0.00 25 1015.3
20260903221552 75 223 12.2 20.9 0.00 0.00 0.00 25 1015.3
20260903221051 75 246 10.4 17.4 0.00 0.00 0.00 25 1015.3
20260903220551 75 218 8.7 18.2 0.00 0.00 0.00 26 1015.4
20260903220106 76 240 10.4 18.2 0.00 0.00 0.00 24 1015.3
20260903215549 75 178 8.7 17.4 0.00 0.00 0.00 25 1015.5
20260903215050 74 213 7.8 17.4 0.00 0.00 0.00 25 1015.5
20260903214553 75 216 11.3 20.9 0.00 0.00 0.00 24 1015.6
20260903214048 75 198 9.6 20.9 0.00 0.00 0.00 24 1015.7
20260903213548 74 211 9.6 20.0 0.00 0.00 0.00 25 1015.5
20260903213050 73 200 11.3 19.1 0.00 0.00 0.00 25 1015.6
20260903212546 72 190 10.4 19.1 0.00 0.00 0.00 25 1015.7
20260903212046 73 230 11.3 20.0 0.00 0.00 0.00 25 1015.6
20260903211545 73 172 6.1 13.9 0.00 0.00 0.00 25 1015.7
20260903211044 73 244 7.0 13.0 0.00 0.00 0.00 25 1015.9
20260903210544 74 197 7.8 19.1 0.00 0.00 0.00 24 1015.9
20260903210049 75 192 9.6 15.6 0.00 0.00 0.00 23 1016.2
20260903205542 75 180 8.7 20.0 0.00 0.00 0.00 24 1016.2
20260903205042 75 223 9.6 17.4 0.00 0.00 0.00 24 1016.3
20260903204542 74 225 7.0 15.6 0.00 0.00 0.00 24 1016.4
20260903204040 74 182 7.8 14.8 0.00 0.00 0.00 24 1016.5
20260903203543 73 175 6.1 14.8 0.00 0.00 0.00 25 1016.4
20260903203043 73 235 8.7 15.6 0.00 0.00 0.00 25 1016.6
20260903202540 74 217 7.0 14.8 0.00 0.00 0.00 24 1016.5
20260903202039 73 173 2.6 9.6 0.00 0.00 0.00 24 1016.6
20260903201539 72 245 4.3 16.5 0.00 0.00 0.00 25 1016.7
20260903201037 72 170 5.2 16.5 0.00 0.00 0.00 23 1016.9
20260903200538 72 203 9.6 17.4 0.00 0.00 0.00 23 1017.1
20260903200037 72 250 7.8 18.2 0.00 0.00 0.00 23 1017.0
20260903195536 72 168 7.8 19.1 0.00 0.00 0.00 23 1017.2
20260903195036 73 186 9.6 16.5 0.00 0.00 0.00 22 1017.2
20260903194546 73 188 7.0 20.0 0.00 0.00 0.00 23 1017.3
20260903194036 73 204 10.4 19.1 0.00 0.00 0.00 22 1017.5
20260903193536 74 200 9.6 19.1 0.00 0.00 0.00 22 1017.5
20260903193038 74 164 9.6 19.1 0.00 0.00 0.00 22 1017.5
20260903192536 75 198 8.7 18.2 0.00 0.00 0.00 22 1017.6
20260903192033 75 158 9.6 20.9 0.00 0.00 0.00 22 1017.5
20260903191541 74 202 10.4 20.9 0.00 0.00 0.00 23 1017.7
20260903191034 73 200 1.7 18.2 0.00 0.00 0.00 23 1017.8
20260903190530 72 213 5.2 22.6 0.00 0.00 0.00 23 1018.0
20260903190030 71 162 12.2 22.6 0.00 0.00 0.00 23 1018.0
20260903185528 70 160 7.0 16.5 0.00 0.00 0.00 24 1018.1
20260903185127 70 157 4.3 16.5 0.00 0.00 0.00 23 1018.3
20260903184527 70 173 5.2 18.2 0.00 0.00 0.00 24 1018.4
20260903184026 71 146 3.5 15.6 0.00 0.00 0.00 23 1018.5
20260903183527 71 178 7.8 15.6 0.00 0.00 0.00 23 1018.8
20260903183024 71 163 3.5 12.2 0.00 0.00 0.00 23 1018.8
20260903182522 71 189 7.0 12.2 0.00 0.00 0.00 22 1019.0
20260903182023 70 172 5.2 12.2 0.00 0.00 0.00 23 1018.9
20260903181536 70 188 7.8 16.5 0.00 0.00 0.00 23 1019.1
20260903181022 70 163 12.2 18.2 0.00 0.00 0.00 23 1019.1
20260903180522 69 186 6.1 13.0 0.00 0.00 0.00 24 1019.2
20260903180022 69 207 6.1 14.8 0.00 0.00 0.00 24 1019.3
20260903175521 69 157 6.1 12.2 0.00 0.00 0.00 24 1019.2
20260903175021 69 155 0.9 14.8 0.00 0.00 0.00 24 1019.2
20260903174521 69 159 9.6 14.8 0.00 0.00 0.00 23 1019.4
20260903174020 69 202 0.9 16.5 0.00 0.00 0.00 23 1019.4
20260903173521 69 144 8.7 16.5 0.00 0.00 0.00 23 1019.5
20260903173019 68 159 7.0 16.5 0.00 0.00 0.00 24 1019.4
20260903172520 67 221 7.8 16.5 0.00 0.00 0.00 24 1019.5
20260903172019 67 203 7.8 13.0 0.00 0.00 0.00 25 1019.5
20260903171530 67 174 6.1 13.0 0.00 0.00 0.00 24 1019.6
20260903171017 67 163 7.0 13.0 0.00 0.00 0.00 24 1019.6
20260903170517 67 171 7.8 15.6 0.00 0.00 0.00 24 1019.7
20260903170017 68 180 4.3 17.4 0.00 0.00 0.00 24 1019.7
20260903165516 68 153 7.8 17.4 0.00 0.00 0.00 23 1019.9
20260903165015 68 208 3.5 14.8 0.00 0.00 0.00 23 1019.9
20260903164515 68 175 4.3 14.8 0.00 0.00 0.00 23 1019.9
20260903164015 69 210 8.7 14.8 0.00 0.00 0.00 22 1019.8
20260903163517 70 190 3.5 9.6 0.00 0.00 0.00 21 1019.9
20260903163016 71 21 0.0 2.6 0.00 0.00 0.00 21 1019.9
20260903162511 70 82 0.0 0.9 0.00 0.00 0.00 21 1020.0
20260903162014 69 25 0.0 3.5 0.00 0.00 0.00 22 1020.0
20260903161509 68 5 0.0 3.5 0.00 0.00 0.00 23 1020.1
20260903161007 66 9 0.0 0.9 0.00 0.00 0.00 25 1020.3
20260903160508 65 350 0.0 0.9 0.00 0.00 0.00 26 1020.4
20260903160007 65 236 0.0 0.0 0.00 0.00 0.00 25 1020.5
20260903155504 64 178 0.0 1.7 0.00 0.00 0.00 25 1020.6
20260903155004 64 190 0.0 1.7 0.00 0.00 0.00 25 1020.7
20260903154504 64 217 0.0 0.0 0.00 0.00 0.00 26 1020.7
20260903154004 63 205 0.0 1.7 0.00 0.00 0.00 26 1020.9
20260903153502 62 215 0.0 5.2 0.00 0.00 0.00 26 1020.9
20260903153002 62 220 0.9 6.1 0.00 0.00 0.00 26 1021.0
20260903152506 63 271 3.5 6.1 0.00 0.00 0.00 26 1021.0
20260903152002 63 271 0.9 4.3 0.00 0.00 0.00 25 1021.0
20260903151103 62 232 0.0 7.8 0.00 0.00 0.00 26 1021.0
20260903150559 62 245 0.9 7.0 0.00 0.00 0.00 26 1020.9
20260903150116 61 200 0.9 6.1 0.00 0.00 0.00 26 1020.8
20260903145555 61 254 0.0 5.2 0.00 0.00 0.00 28 1020.9
20260903145054 60 215 0.0 3.5 0.00 0.00 0.00 27 1020.8
20260903144554 59 238 0.0 3.5 0.00 0.00 0.00 29 1020.9
20260903144052 57 209 0.0 1.7 0.00 0.00 0.00 32 1020.8
20260903143552 56 192 0.0 0.0 0.00 0.00 0.00 36 1020.8
20260903143052 55 166 0.0 0.0 0.00 0.00 0.00 38 1020.8
20260903142552 54 166 0.0 0.0 0.00 0.00 0.00 40 1020.8